AirNav   Everest Fuels
 
 696 users online  

KAAO Colonel James Jabara Airport
Wichita, Kansas, USA

GOING TO WICHITA?


FAA INFORMATION EFFECTIVE 11 AUGUST 2022

Location

FAA Identifier: AAO
Lat/Long: 37-44-51.2670N 097-13-16.0240W
37-44.854450N 097-13.267067W
37.7475742,-97.2211178
(estimated)
Elevation: 1420.8 ft. / 433.1 m (surveyed)
Variation: 06E (2000)
From city: 9 miles NE of WICHITA, KS
Time zone: UTC -5 (UTC -6 during Standard Time)
Zip code: 67226

Airport Operations

Airport use: Open to the public
Activation date: 07/1944
Control tower: no
ARTCC: KANSAS CITY CENTER
FSS: WICHITA FLIGHT SERVICE STATION
NOTAMs facility: AAO (NOTAM-D service available)
Attendance: CONTINUOUS
Wind indicator: lighted
Segmented circle: yes
Lights: APT LGT SKED: ACTVT MIRL RY 18/36, MALSR RY 18, REIL RY 36 - CTAF. PAPI RYS 18 & 36 OPR CONT.
Beacon: white-green (lighted land airport)
Operates sunset to sunrise.

Airport Communications

CTAF/UNICOM: 122.7
WX ASOS: 134.025 (316-636-2541)
WICHITA APPROACH: 134.8
WICHITA DEPARTURE: 134.8
CLEARANCE DELIVERY: 125.0
WX AWOS-3PT at BEC (3 nm S): 119.45 (316-515-7116)
WX AWOS-2 at 1K1 (5 nm E): 118.3 (316-530-6004)
WX AWOS-3P at 3AU (8 nm SE): 124.175 (316-733-6696)
WX ASOS at ICT (12 nm SW): PHONE 316-945-8022
WX AWOS-3PT at EWK (19 nm N): 123.875 (316-283-8789)
WX AWOS-3P at EQA (19 nm E): 120.875 (316-322-8095)

Nearby radio navigation aids

VOR radial/distance  VOR name  Freq  Var
ICTr083/17.2WICHITA VORTAC113.8007E
HUTr110/36.9HUTCHINSON VOR/DME116.8004E

Airport Services

Fuel available: 100LL JET-A
100LL:FOR 24 HOUR FUEL CONTACT FBO
Parking: hangars and tiedowns
Airframe service: MAJOR
Powerplant service: MAJOR
Bottled oxygen: NONE
Bulk oxygen: NONE

Runway Information

Runway 18/36

Dimensions: 6101 x 100 ft. / 1860 x 30 m
Surface: concrete/grooved, in good condition
Weight bearing capacity: 
PCN 15 /R/B/X/T
Single wheel: 40.0
Double wheel: 62.0
Runway edge lights: medium intensity
RUNWAY 18  RUNWAY 36
Latitude: 37-45.353470N37-44.355437N
Longitude: 097-13.191685W097-13.342427W
Elevation: 1401.2 ft.1420.8 ft.
Traffic pattern: rightleft
Runway heading: 181 magnetic, 187 true001 magnetic, 007 true
Markings: precision, in good conditionnonprecision, in good condition
Visual slope indicator: 4-light PAPI on left (3.00 degrees glide path)4-light PAPI on left (3.00 degrees glide path)
Approach lights: MALSR: 1,400 foot medium intensity approach lighting system with runway alignment indicator lights
Runway end identifier lights: noyes
Touchdown point: yes, no lightsyes, no lights
Instrument approach: ILS/DME

Airport Ownership and Management from official FAA records

Ownership: Publicly-owned
Owner: WICHITA AIRPORT AUTHORITY
2173 AIR CARGO RD
WICHITA, KS 67209
Phone 316-946-4700
Manager: MR. JESSE ROMO, A.A.E.
2173 AIR CARGO ROAD
WICHITA, KS 67209
Phone 316-946-4700

Airport Operational Statistics

Aircraft based on the field: 128
Single engine airplanes: 62
Multi engine airplanes: 29
Jet airplanes: 35
Helicopters: 1
Military aircraft: 1
    
Aircraft operations: avg 105/day *
50% transient general aviation
47% local general aviation
3% air taxi
* for 12-month period ending 13 August 2019

Additional Remarks

ATNDD CONSY.
USE CTN FOR MCCONNELL AFB 9 MILES S AND BEECH FACTORY ARPT 3 MILES S.
BEECH FACTORY ARPT CLASS D ASP BEGINS 1 MILE S OF RWY 18 DER.
SOUTHERLY AND SOUTHEASTERLY VFR ARR AND DEP NOT RCMDD WO ATC RADAR SVCS DUE TO BEECH FACTORY ARPT AND MCCONNELL CLASS D AFB ASP.
VFR ARR AND DEP ARE RCMDD TO RMN AOB 2500 FT MSL WITHIN 5 MILES DUE TO HEAVY MIL TFC AOA 3000 FT MSL.
MIGRATORY BIRDS INVOF ARPT.
DUE TO 20 FT RWY END ELEV DIFFERENTIAL, PILOTS MAY LOSE LINE OF SIGHT OF OTHER ACFT ON OPPOSING RWY ENDS.
NOISE SENSITIVE AREAS S, SW, AND W.
PPR FOR ACFT CARRYING CLASS 1 - DIVISION 1.1, 1.2, OR 1.3 XPLOSS AS DEFINED BY 49 CFR 173.50 OR AS AMDD.
RWY 18 NSTD TFC PAT.
FOR CD CTC WICHITA APCH AT 316-350-1520.
ALL TFC PATS W OF FIELD.
RWY 36 DSGND CALM WIND RWY.

Instrument Procedures

NOTE: All procedures below are presented as PDF files. If you need a reader for these files, you should download the free Adobe Reader.

NOT FOR NAVIGATION. Please procure official charts for flight.
FAA instrument procedures published for use from 11 August 2022 at 0901Z to 08 September 2022 at 0900z.

 
IAPs - Instrument Approach Procedures
ILS OR LOC RWY 18 **CHANGED**   download (232KB)
RNAV (GPS) RWY 18   download (244KB)
RNAV (GPS) RWY 36   download (253KB)
RNAV (GPS)-E   download (190KB)
NOTE: Special Alternate Minimums apply   download (140KB)
NOTE: Special Take-Off Minimums/Departure Procedures apply   download (147KB)

Other nearby airports with instrument procedures:

KBEC - Beech Factory Airport (3 nm S)
1K1 - Lloyd Stearman Field Airport (5 nm E)
KCEA - Cessna Aircraft Field Airport (6 nm S)
KIAB - Mc Connell Air Force Base (8 nm S)
3AU - Augusta Municipal Airport (8 nm SE)
KICT - Wichita Dwight D Eisenhower National Airport (12 nm SW)
KEWK - Newton City/County Airport (19 nm N)
KEQA - El Dorado/Capt Jack Thomas Memorial Airport (19 nm E)
 
Loc | Ops | Rwys | IFR | FBO | Links
Com | Nav | Svcs | Stats | Notes

Yingling Aviation
AirBoss

 
Area around KAAO (Colonel James Jabara Airport)
 
Road maps at: MapQuest Bing Google
 
Aerial photo
WARNING: Photo may not be current or correct
Aerial photo of KAAO (Colonel James Jabara Airport)
Photo by Matthew Bell
Photo taken 19-Feb-2013
looking south.

Do you have a better or more recent aerial photo of Colonel James Jabara Airport that you would like to share? If so, please send us your photo.

 
Sectional chart

 
Airport distance calculator
Flying to Colonel James Jabara Airport? Find the distance to fly.

From to KAAO

Sunrise and sunset
Times for 11-Aug-2022
 Local
(UTC-5)
 Zulu
(UTC)
Morning civil twilight06:1411:14
Sunrise06:4211:42
Sunset20:2601:26
Evening civil twilight20:5401:54

Current date and time
Zulu (UTC)  11-Aug-2022 10:55:10
Local (UTC-5)  11-Aug-2022 05:55:10
 
METAR
KAAO 110954Z AUTO 05003KT 10SM CLR 16/14 A3015 RMK AO2 SLP198 T01610144 $
KBEC 
3nm S 
111035Z AUTO 03003KT 10SM CLR 17/15 A3016 RMK AO2 T01740146
K1K1 
5nm E 
111035Z AUTO 30004KT 10SM CLR 17/14 A3016 RMK AO2 T01650141
KIAB 
8nm S 
110956Z 06005KT 10SM CLR 20/16 A3014 RMK AO2A SLPNO $
K3AU 
8nm SE 
111035Z AUTO 00000KT 10SM CLR 17/15 A3016 RMK AO2
KICT 
12nm SW 
110953Z 08006KT 10SM CLR 20/16 A3015 RMK AO2 SLP193 T02000156
KEWK 
17nm N 
110956Z AUTO 11005KT 10SM CLR 18/15 A3017 RMK AO2 SLP201 T01780150
KEQA 
19nm E 
111035Z AUTO 08003KT 10SM CLR 16/15 A3015 RMK AO2
TAF
KIAB 
8nm S 
111000Z 1110/1216 07006KT 9999 SKC QNH3013INS BECMG 1117/1118 09012G18KT 9999 SKC QNH3008INS BECMG 1201/1202 13006KT 9999 SKC QNH3012INS BECMG 1215/1216 16010G20KT 9999 SKC QNH3014INS TX36/1121Z TN19/1112Z
KICT 
12nm SW 
110522Z 1106/1206 07008KT P6SM SKC FM111700 09011KT P6SM SKC FM120100 10007KT P6SM SKC
NOTAMs
Click for the latest NOTAMs
NOTAMs are issued by the DoD/FAA and will open in a separate window not controlled by AirNav.

 

 
 

FBO, Fuel Providers, and Aircraft Ground Support

  
 Business Name 
 
 Contact 
 
 Services / Description 
 
Fuel Prices
 
Comments
  
Midwest Corporate Aviation 316-636-9700
toll-free 800-435-9622
[web site]
[email]
Aviation fuel, Oxygen service, Aircraft parking (ramp or tiedown), Hangars, GPU / Power cart, Passenger terminal and lounge, Flight training, ...
 
Phillips 66® Aviation Contract Fuel   FAA-Approved Repair Station   Cessna Service Center   Diamond Aircraft  
 
More info about Midwest Corporate Aviation
Phillips 66
100LL Jet A
FS $7.44 $7.44 
 Updated 09-Aug-2022
 
   2 read write
Alternatives at nearby airports
IMPORTANT: Note that the FBOs below are NOT at KAAO but at other nearby airports. Do not expect services from these FBOs to be available at KAAO.
Located at 3AU
Augusta Municipal Airport
UNICOM 122.80
316-733-1326
316-733-1327
[web site]
[email]
At 3AU (Augusta Municipal Airport), 8 miles SE

Augusta Municipal Airport is the closest Airport and FBO to Flight Safety at Beechcraft and downtown Wichita. We offer the best Jet-A prices and best quick turn service available. We offer all the same amenities found at the BIG Box Chain FBO's, but without the added expense!
More info and photos of Augusta Municipal Airport (3AU)
Located at 3AU
Phillips 66
100LL Jet A
FS --- $6.05 
SS $6.57 --- 
GUARANTEED
 
   1 read write
FS=Full service
SS=Self service
Update Fuel Prices
 

Aviation Businesses, Services, and Facilities

  
 Business Name 
 
 Contact 
 
 Services / Description 
 
Distance
 
Comments
  
Clemens Aviation 316-260-9444
316-648-0132
[web site]
[email]

Like us on facebook
Aircraft ground handling, Oxygen service, Aircraft parking (ramp or tiedown), Hangar leasing / sales, GPU / Power cart, Passenger terminal and lounge, ...
More info and photos of Clemens Aviation
 
FAA-Approved Repair Station   Garmin  
 
on airport  
   write
 

Would you like to see your business listed on this page?

 If your business provides an interesting product or service to pilots, flight crews, aircraft, or users of the Colonel James Jabara Airport, you should consider listing it here.  To start the listing process, click on the button below
 
Add a business
 

Other Pages about Colonel James Jabara Airport

Update a link
 
Copyright © AirNav, LLC. All rights reserved. Privacy Policy  Contact